Погода в Казинке

Россия / Липецкая область     52°04′20″N   38°23′30″E
темп.,
°C
ветер,
м/с
пор.,
м/с
влажн.,
%
обл.,
%
осадки,
мм/ч
давл.,
гПа
погр.,
м
7 мая, пт
пт700:00+9сз5891100 0.5 1011479
03:00+8сз4894100 6.3 1011538
06:00+8сз3591100 2.3 1012417
09:00+11сз347436 2.4 1013953
12:00+14сз45465 0.1 10141880
15:00+15зсз333932 0.1 10142150
18:00+14зюз1247100 0.0 10151258
21:00+10юв335425 0.0 101539
8 мая, сб
сб800:00+8ююв41067100 0.0 1015201
03:00+8юв61479100 0.0 1014323
06:00+9ююв8177695 0.0 1012583
09:00+12ююв9167397 0.0 1010905
12:00+12ю101881100 0.9 10081136
15:00+12ююз81592100 6.6 1007933
18:00+11юз6993100 0.6 1007513
21:00+9з61188100 0.9 1009655
9 мая, вс
вс900:00+6зюз51290100 0.1 1011664
03:00+6зсз61089100 0.1 10121029
06:00+5зсз51086100 0.1 1014916
09:00+7сз7977100 0.1 1016970
12:00+10сз785997 0.0 10171574
15:00+12ссз7849100 0.1 10182170
18:00+9с796690 0.1 10211283
21:00+7ссз496659 0.1 1024359
10 мая, пн
пн1000:00+4сз4118251 0.0 1024249
03:00+5ссз51377100 0.0 1026321
06:00+5с6147586 0.0 1026449
09:00+10ссв9146041 0.0 10261254
12:00+13ссв1013505 0.0 10261450
15:00+14ссв9124928 0.0 10261568
18:00+12ссв8125955 0.0 1026994
21:00+10ссв7146372 0.0 1026630
11 мая, вт
вт1100:00+9св614705 0.0 1028423
03:00+8св615715 0.0 1027390
06:00+7св615745 0.0 1028426
09:00+12всв81265100 0.0 1027587
12:00+16всв81163100 0.0 1026813
15:00+18всв7106351 0.0 10251291
18:00+17всв5107335 0.0 1025956
21:00+15св81676100 0.0 1024888